Weather History for KKLS - January, 2012

Change the Weather History Date:

Friday, January 20, 2012

  Actual Average Record
Temperature  
Mean Temperature 40 °F -  
Max Temperature 44 °F 44 °F 57 °F (2005)
Min Temperature 39 °F 35 °F 26 °F (2009)
Degree Days  
Heating Degree Days 24    
Moisture  
Dew Point 39 °F    
Average Humidity 92    
Maximum Humidity 100    
Minimum Humidity 87    
Precipitation  
Precipitation 0.11 in - - ()
Sea Level Pressure  
Sea Level Pressure 29.53 in    
Wind  
Wind Speed 9 mph (SE)    
Max Wind Speed 18 mph    
Max Gust Speed 30 mph    
Visibility 6 miles    
Events      
Averages and records for this station are not official NWS values.
T = Trace of Precipitation, MM = Missing Value Source: NWS Daily Summary

Daily Weather History Graph

Daily Weather History Graph

Search for Another Location

Airport or City:

Trip Planner

Search our weather history database for the weather conditions in past years. The results will help you decide how hot, cold, wet, or windy it might be!

Date:

Astronomy

Jan. 20, 2012 Rise Set
Actual Time 7:46 AM PST 4:58 PM PST
Civil Twilight 7:13 AM PST 5:31 PM PST
Nautical Twilight 6:36 AM PST 6:08 PM PST
Astronomical Twilight 6:01 AM PST 6:44 PM PST
Moon 5:33 AM PST (1/20) 2:32 PM PST (1/20)
Length of Visible Light 10h 18m
Length of Day
9h 12m
Waning Crescent, 7% of the Moon is Illuminated
Jan 20
Waning Crescent
Jan 22
New
Jan 30
First Quarter
Feb 7
Full
Feb 14
Last Quarter

Hourly Weather History & Observations

Time (PST) Temp. Windchill Dew Point Humidity Pressure Visibility Wind Dir Wind Speed Gust Speed Precip Events Conditions
12:15 AM 39.2 °F 35.0 °F 37.4 °F 93% 29.76 in 10.0 mi SE 5.8 mph - N/A   Overcast
12:35 AM 39.2 °F 33.6 °F 37.4 °F 93% 29.75 in 9.0 mi SSE 8.1 mph - N/A   Overcast
12:55 AM 39.2 °F 34.2 °F 37.4 °F 93% 29.75 in 9.0 mi SSE 6.9 mph - N/A   Overcast
1:15 AM 39.2 °F 34.2 °F 37.4 °F 93% 29.75 in 10.0 mi SE 6.9 mph - N/A   Overcast
1:35 AM 39.2 °F 34.2 °F 37.4 °F 93% 29.76 in 8.0 mi SE 6.9 mph - N/A   Overcast
1:55 AM 39.2 °F 33.0 °F 37.4 °F 93% 29.75 in 7.0 mi SE 9.2 mph - N/A   Overcast
2:15 AM 39.2 °F 33.0 °F 37.4 °F 93% 29.74 in 7.0 mi SSE 9.2 mph - N/A   Overcast
2:35 AM 39.2 °F 33.0 °F 37.4 °F 93% 29.75 in 5.0 mi SSE 9.2 mph - N/A   Overcast
2:55 AM 39.2 °F 34.2 °F 37.4 °F 93% 29.75 in 4.0 mi SE 6.9 mph - N/A   Overcast
3:15 AM 39.2 °F 33.0 °F 39.2 °F 100% 29.74 in 5.0 mi SE 9.2 mph - N/A   Overcast
3:35 AM 39.2 °F 34.2 °F 39.2 °F 100% 29.74 in 5.0 mi SE 6.9 mph - N/A   Overcast
3:55 AM 41.0 °F 35.2 °F 39.2 °F 93% 29.74 in 5.0 mi SE 9.2 mph - N/A   Overcast
4:15 AM 41.0 °F 35.2 °F 39.2 °F 93% 29.72 in 6.0 mi SE 9.2 mph - N/A   Overcast
4:35 AM 41.0 °F 34.3 °F 39.2 °F 93% 29.72 in 6.0 mi SE 11.5 mph 17.3 mph N/A   Overcast
4:55 AM 41.0 °F 34.7 °F 39.2 °F 93% 29.71 in 6.0 mi SE 10.4 mph 17.3 mph N/A   Overcast
5:15 AM 41.0 °F 34.7 °F 39.2 °F 93% 29.71 in 6.0 mi SE 10.4 mph - N/A   Overcast
5:35 AM 41.0 °F 35.2 °F 39.2 °F 93% 29.71 in 7.0 mi SE 9.2 mph - N/A   Overcast
5:55 AM 41.0 °F 35.2 °F 39.2 °F 93% 29.71 in 5.0 mi SE 9.2 mph 16.1 mph N/A   Overcast
6:15 AM 42.8 °F 36.6 °F 39.2 °F 87% 29.70 in 5.0 mi SE 11.5 mph 16.1 mph N/A   Overcast
6:35 AM 42.8 °F 37.0 °F 39.2 °F 87% 29.68 in 8.0 mi SE 10.4 mph - N/A   Overcast
6:55 AM 42.8 °F 37.0 °F 39.2 °F 87% 29.67 in 6.0 mi SE 10.4 mph - N/A   Overcast
7:15 AM 42.8 °F 37.5 °F 39.2 °F 87% 29.66 in 5.0 mi SE 9.2 mph 16.1 mph N/A   Overcast
7:35 AM 42.8 °F 37.0 °F 39.2 °F 87% 29.65 in 5.0 mi SE 10.4 mph 16.1 mph N/A   Overcast
7:55 AM 42.8 °F 37.5 °F 39.2 °F 87% 29.65 in 4.0 mi SE 9.2 mph - N/A   Overcast
8:15 AM 42.8 °F 37.0 °F 41.0 °F 93% 29.64 in 3.0 mi SE 10.4 mph - 0.01 in   Overcast
8:35 AM 42.8 °F 37.0 °F 41.0 °F 93% 29.63 in 5.0 mi SE 10.4 mph - 0.01 in   Overcast
8:55 AM 42.8 °F 37.0 °F 41.0 °F 93% 29.62 in 5.0 mi SE 10.4 mph - 0.01 in   Overcast
9:15 AM 42.8 °F 37.5 °F 41.0 °F 93% 29.62 in 5.0 mi SE 9.2 mph - N/A   Overcast
9:35 AM 42.8 °F 36.2 °F 39.2 °F 87% 29.61 in 3.0 mi SE 12.7 mph 17.3 mph 0.01 in   Overcast
9:55 AM 42.8 °F 37.0 °F 41.0 °F 93% 29.61 in 3.0 mi SE 10.4 mph - 0.01 in   Overcast
10:15 AM 42.8 °F 36.6 °F 41.0 °F 93% 29.60 in 5.0 mi SSE 11.5 mph - 0.01 in   Overcast
10:35 AM 42.8 °F 37.0 °F 41.0 °F 93% 29.60 in 5.0 mi SE 10.4 mph - 0.01 in   Overcast
10:55 AM 42.8 °F 37.5 °F 41.0 °F 93% 29.59 in 5.0 mi SE 9.2 mph - 0.01 in   Overcast
11:15 AM 42.8 °F 38.0 °F 41.0 °F 93% 29.57 in 5.0 mi SE 8.1 mph - 0.02 in   Overcast
7:15 PM 39.2 °F 29.8 °F 37.4 °F 93% 29.15 in 7.0 mi SSE 18.4 mph 29.9 mph N/A   Overcast
7:55 PM 39.2 °F 30.2 °F 37.4 °F 93% 29.15 in 7.0 mi SE 17.3 mph 26.5 mph N/A   Overcast
8:15 PM 39.2 °F 30.2 °F 37.4 °F 93% 29.15 in 10.0 mi SE 17.3 mph 24.2 mph N/A   Overcast
8:35 PM 39.2 °F 31.6 °F 37.4 °F 93% 29.16 in 10.0 mi SE 12.7 mph 19.6 mph N/A   Overcast
8:55 PM 39.2 °F 31.6 °F 37.4 °F 93% 29.16 in 10.0 mi SE 12.7 mph 19.6 mph 0.02 in   Overcast
9:15 PM 39.2 °F 31.6 °F 37.4 °F 93% 29.16 in 10.0 mi SE 12.7 mph 18.4 mph N/A   Overcast
9:35 PM 39.2 °F 32.0 °F 37.4 °F 93% 29.15 in 9.0 mi SE 11.5 mph 17.3 mph N/A   Overcast
9:55 PM 41.0 °F 34.3 °F 37.4 °F 87% 29.14 in 8.0 mi SE 11.5 mph - N/A   Overcast
10:15 PM 41.0 °F 34.3 °F 39.2 °F 93% 29.13 in 7.0 mi SE 11.5 mph - 0.01 in   Overcast
10:35 PM 42.8 °F 37.0 °F 39.2 °F 87% 29.11 in 5.0 mi SE 10.4 mph 16.1 mph 0.01 in   Overcast
10:55 PM 42.8 °F 36.6 °F 41.0 °F 93% 29.11 in 8.0 mi SE 11.5 mph 17.3 mph 0.01 in   Overcast
11:15 PM 42.8 °F 35.8 °F 42.8 °F 100% 29.11 in 5.0 mi SE 13.8 mph 19.6 mph 0.02 in   Overcast
11:35 PM 42.8 °F 37.5 °F 42.8 °F 100% 29.10 in 6.0 mi SSE 9.2 mph - 0.03 in   Overcast
11:55 PM 44.6 °F 38.4 °F 42.8 °F 93% 29.11 in 9.0 mi SSE 12.7 mph 18.4 mph 0.03 in   Overcast